Notices

What's New in latest Release from April 7th, 2021:

- Updated Glossary, including Speed of Maximum Gust, and Total Hourly Precipitation

- Updated national and regional climate services offices contacts and prices information

- Addition of station inventory lists for 1981-2010, 1971-2000, and 1961-1990 Normals.

If you haven't already, please take our survey and provide feedback about our website: https://eccc.sondage-survey.ca/f/LanguageSelection.aspx?s=442ca660-fcf1-47c0-95a9-59707d6fd709

Hourly Data Report for November 18, 2017

VICTORIA UNIVERSITY CS
BRITISH COLUMBIA

48°27'25.200" N
123°18'16.600" W
60.10 m
1018598
71783
WYJ

Download Data

Hourly Data (November 2017)
Hourly Data Report for November 18, 2017
TIME
LST
Temp Definition
°C
Dew Point Definition
°C
Rel Hum Definition
%
Precip. Amount Definition
mm

Wind Dir Definition
10's deg

Wind Spd Definition
km/h
Visibility Definition
km
Stn Press Definition
kPa
Hmdx Definition


Wind Chill Definition


Weather Definition


00:00 7.2 5.1 87 0.0 17 7   101.76     LegendNANA
01:00 7.0 5.0 88 0.0 15 5   101.74     LegendNANA
02:00 6.6 4.9 89 0.0 16 3   101.72     LegendNANA
03:00 6.3 4.7 90 0.0 15 2   101.72     LegendNANA
04:00 5.5 4.4 93 0.0 12 1   101.66     LegendNANA
05:00 5.6 4.8 95 0.0 8 3   101.66     LegendNANA
06:00 6.1 4.7 91 0.0 9 3   101.64     LegendNANA
07:00 6.0 3.9 87 0.0 15 1   101.63     LegendNANA
08:00 5.4 4.0 91 0.0 9 1   101.64     LegendNANA
09:00 7.7 5.9 88 0.0 11 2   101.62     LegendNANA
10:00 8.2 6.0 86 0.0 10 3   101.59     LegendNANA
11:00 8.7 5.9 83 0.0 12 2   101.58     LegendNANA
12:00 9.3 5.0 75 0.0 10 4   101.44     LegendNANA
13:00 8.7 5.7 82 0.0 15 2   101.37     LegendNANA
14:00 9.3 5.8 79 0.0 8 2   101.32     LegendNANA
15:00 8.8 5.3 79 0.0 13 1   101.26     LegendNANA
16:00 7.7 4.2 78 0.0   0   101.22     LegendNANA
17:00 6.4 4.7 89 0.0 0 1   101.17     LegendNANA
18:00 7.1 5.6 90 0.0 18 2   101.14     LegendNANA
19:00 6.7 5.2 91 0.0 24 3   101.13     LegendNANA
20:00 6.3 4.9 90 0.0 26 2   101.09     LegendNANA
21:00 6.2 4.8 90 0.0 0 1   101.04     LegendNANA
22:00 6.7 5.7 94 0.0 0 1   100.97     LegendNANA
23:00 7.3 6.0 91 0.0   0   100.95     LegendNANA

Notes on Data Quality.

Legend

  • E = Estimated
  • M = Missing
  • NA = Not Available*
  • [empty] = Indicates an unobserved value
Date modified: